CUB219 TFFR-TNCM

Flight info

Callsign CUB219
Flight time 0h 32m
Altitude 22000
Route BIMBO2F BIMBO DCT ZPATA ULUBA1
Aircraft A320/M-SDE3FGHIRWY/LB1

Departure

Time 2026-05-06 00:59
Airport Maryse Condé International Airport (TFFR)

Arrival

Time 2026-05-06 01:32
Airport Princess Juliana International Airport (TNCM)
Time Latitude Longitude Altitude Speed Heading
2026-05-06 00:42 16.26892 -61.52536 21 ft 0 kts 11°
2026-05-06 00:50 16.26875 -61.52540 23 ft 3 kts 11°
2026-05-06 00:50 16.26858 -61.52543 22 ft 3 kts 11°
2026-05-06 00:50 16.26841 -61.52547 25 ft 2 kts 11°
2026-05-06 00:50 16.26824 -61.52550 22 ft 2 kts 11°
2026-05-06 00:51 16.26807 -61.52552 24 ft 2 kts 322°
2026-05-06 00:51 16.26794 -61.52541 25 ft 2 kts 320°
2026-05-06 00:51 16.26781 -61.52530 24 ft 2 kts 301°
2026-05-06 00:51 16.26778 -61.52526 25 ft 0 kts 278°
2026-05-06 00:53 16.26781 -61.52530 21 ft 0 kts 298°
2026-05-06 00:54 16.26781 -61.52531 21 ft 2 kts 297°
2026-05-06 00:54 16.26792 -61.52569 21 ft 13 kts 282°
2026-05-06 00:54 16.26814 -61.52681 21 ft 17 kts 282°
2026-05-06 00:54 16.26840 -61.52810 21 ft 18 kts 281°
2026-05-06 00:55 16.26829 -61.52922 22 ft 17 kts 225°
2026-05-06 00:55 16.26709 -61.52957 21 ft 19 kts 192°
2026-05-06 00:55 16.26570 -61.52986 20 ft 22 kts 191°
2026-05-06 00:55 16.26508 -61.53068 20 ft 21 kts 276°
2026-05-06 00:56 16.26548 -61.53278 19 ft 36 kts 280°
2026-05-06 00:56 16.26596 -61.53537 23 ft 36 kts 281°
2026-05-06 00:56 16.26629 -61.53710 22 ft 38 kts 281°
2026-05-06 00:56 16.26681 -61.53982 19 ft 40 kts 281°
2026-05-06 00:57 16.26735 -61.54261 15 ft 38 kts 281°
2026-05-06 00:57 16.26782 -61.54525 14 ft 37 kts 279°
2026-05-06 00:57 16.26829 -61.54708 13 ft 12 kts 328°
2026-05-06 00:57 16.26853 -61.54779 15 ft 11 kts 222°
2026-05-06 00:58 16.26819 -61.54744 14 ft 10 kts 103°
2026-05-06 00:58 16.26801 -61.54659 12 ft 14 kts 101°
2026-05-06 00:58 16.26797 -61.54635 12 ft 0 kts 101°
2026-05-06 00:58 16.26760 -61.54433 16 ft 65 kts 101°
2026-05-06 00:59 16.26634 -61.53755 21 ft 123 kts 101°
2026-05-06 00:59 16.26441 -61.52703 43 ft 165 kts 100°
2026-05-06 00:59 16.26240 -61.51519 807 ft 149 kts 98°
2026-05-06 00:59 16.26067 -61.50501 1519 ft 137 kts 99°
2026-05-06 01:00 16.25882 -61.49507 1874 ft 148 kts 99°
2026-05-06 01:00 16.25667 -61.48366 1979 ft 176 kts 99°
2026-05-06 01:00 16.25415 -61.47034 2224 ft 200 kts 99°
2026-05-06 01:00 16.25135 -61.45543 2557 ft 221 kts 99°
2026-05-06 01:01 16.24822 -61.43887 2999 ft 244 kts 101°
2026-05-06 01:01 16.24619 -61.42112 3742 ft 253 kts 84°
2026-05-06 01:01 16.25313 -61.40422 4546 ft 264 kts 50°
2026-05-06 01:01 16.26894 -61.39399 5341 ft 278 kts 15°
2026-05-06 01:02 16.28843 -61.39432 6178 ft 287 kts 347°
2026-05-06 01:02 16.30720 -61.40166 7025 ft 290 kts 336°
2026-05-06 01:02 16.32514 -61.41079 7805 ft 292 kts 335°
2026-05-06 01:02 16.34366 -61.42038 8577 ft 295 kts 335°
2026-05-06 01:03 16.36218 -61.42990 9350 ft 298 kts 337°
2026-05-06 01:03 16.38152 -61.43778 10088 ft 300 kts 343°
2026-05-06 01:03 16.40214 -61.44440 10338 ft 321 kts 346°
2026-05-06 01:03 16.42414 -61.45059 10751 ft 332 kts 347°
2026-05-06 01:04 16.44664 -61.45676 11357 ft 336 kts 346°
2026-05-06 01:04 16.46933 -61.46312 11999 ft 339 kts 347°
2026-05-06 01:04 16.49217 -61.46986 12643 ft 343 kts 343°
2026-05-06 01:04 16.51363 -61.48095 13268 ft 348 kts 326°
2026-05-06 01:05 16.53135 -61.49825 13895 ft 352 kts 308°
2026-05-06 01:05 16.54394 -61.52049 14471 ft 355 kts 292°
2026-05-06 01:05 16.55033 -61.54541 15055 ft 357 kts 281°
2026-05-06 01:05 16.55499 -61.57084 15641 ft 359 kts 282°
2026-05-06 01:06 16.55971 -61.59651 16234 ft 361 kts 282°
2026-05-06 01:06 16.56448 -61.62226 16817 ft 363 kts 282°
2026-05-06 01:06 16.56931 -61.64823 17407 ft 366 kts 283°
2026-05-06 01:06 16.57415 -61.67430 17998 ft 368 kts 283°
2026-05-06 01:07 16.57899 -61.70058 18562 ft 370 kts 283°
2026-05-06 01:07 16.58386 -61.72705 19061 ft 373 kts 283°
2026-05-06 01:07 16.58876 -61.75369 19546 ft 376 kts 282°
2026-05-06 01:07 16.59372 -61.78053 20021 ft 379 kts 282°
2026-05-06 01:08 16.59866 -61.80734 20491 ft 383 kts 282°
2026-05-06 01:08 16.60376 -61.83503 20969 ft 386 kts 282°
2026-05-06 01:08 16.60884 -61.86267 21429 ft 389 kts 282°
2026-05-06 01:08 16.61392 -61.89043 21884 ft 392 kts 281°
2026-05-06 01:09 16.61915 -61.91887 22071 ft 394 kts 283°
2026-05-06 01:09 16.62730 -61.94610 22108 ft 385 kts 294°
2026-05-06 01:09 16.64020 -61.97076 22112 ft 382 kts 305°
2026-05-06 01:09 16.65728 -61.99176 22112 ft 380 kts 316°
2026-05-06 01:10 16.67620 -62.01103 22116 ft 380 kts 316°
2026-05-06 01:10 16.69536 -62.03058 22115 ft 382 kts 316°
2026-05-06 01:10 16.71472 -62.05043 22118 ft 398 kts 315°
2026-05-06 01:10 16.73539 -62.07164 22115 ft 415 kts 315°
2026-05-06 01:11 16.75634 -62.09317 22113 ft 429 kts 315°
2026-05-06 01:11 16.77821 -62.11565 22115 ft 442 kts 315°
2026-05-06 01:11 16.80032 -62.13836 22120 ft 453 kts 315°
2026-05-06 01:11 16.82306 -62.16173 22120 ft 460 kts 315°
2026-05-06 01:12 16.83849 -62.17759 22117 ft 461 kts 315°
2026-05-06 01:12 16.86139 -62.20112 22117 ft 462 kts 315°
2026-05-06 01:12 16.88434 -62.22472 22116 ft 463 kts 315°
2026-05-06 01:12 16.90729 -62.24832 22116 ft 463 kts 315°
2026-05-06 01:13 16.93027 -62.27193 22117 ft 463 kts 315°
2026-05-06 01:13 16.95371 -62.29602 22120 ft 463 kts 315°
2026-05-06 01:13 16.97660 -62.31960 22116 ft 458 kts 315°
2026-05-06 01:13 16.99868 -62.34238 22115 ft 435 kts 315°
2026-05-06 01:14 17.03992 -62.38489 22116 ft 400 kts 315°
2026-05-06 01:14 17.05936 -62.40491 22116 ft 385 kts 315°
2026-05-06 01:14 17.07834 -62.42446 22114 ft 382 kts 315°
2026-05-06 01:15 17.09717 -62.44392 22119 ft 380 kts 315°
2026-05-06 01:15 17.11598 -62.46333 22119 ft 380 kts 315°
2026-05-06 01:15 17.13475 -62.48272 22120 ft 379 kts 315°
2026-05-06 01:15 17.15350 -62.50209 22119 ft 379 kts 315°
2026-05-06 01:16 17.17246 -62.52168 22117 ft 387 kts 315°
2026-05-06 01:16 17.19166 -62.54154 22118 ft 390 kts 315°
2026-05-06 01:16 17.21098 -62.56153 22116 ft 390 kts 315°
2026-05-06 01:16 17.23030 -62.58150 22119 ft 391 kts 315°
2026-05-06 01:17 17.24964 -62.60146 22120 ft 391 kts 315°
2026-05-06 01:17 17.26922 -62.62169 22119 ft 391 kts 315°
2026-05-06 01:17 17.28856 -62.64172 22112 ft 391 kts 315°
2026-05-06 01:17 17.30780 -62.66167 21971 ft 384 kts 315°
2026-05-06 01:18 17.32660 -62.68113 21162 ft 377 kts 315°
2026-05-06 01:18 17.34507 -62.70027 20419 ft 369 kts 316°
2026-05-06 01:18 17.36302 -62.71893 19681 ft 362 kts 316°
2026-05-06 01:18 17.38086 -62.73746 18909 ft 357 kts 316°
2026-05-06 01:19 17.39858 -62.75579 18113 ft 351 kts 316°
2026-05-06 01:19 17.41582 -62.77367 17234 ft 347 kts 316°
2026-05-06 01:19 17.43288 -62.79138 16393 ft 343 kts 316°
2026-05-06 01:19 17.44976 -62.80888 15540 ft 341 kts 316°
2026-05-06 01:20 17.46642 -62.82611 14774 ft 336 kts 315°
2026-05-06 01:20 17.48407 -62.84213 14175 ft 329 kts 321°
2026-05-06 01:20 17.50161 -62.85673 13759 ft 316 kts 321°
2026-05-06 01:20 17.51846 -62.87099 13333 ft 305 kts 321°
2026-05-06 01:21 17.53466 -62.88476 12949 ft 294 kts 321°
2026-05-06 01:21 17.55038 -62.89811 12581 ft 290 kts 321°
2026-05-06 01:21 17.56610 -62.91142 12210 ft 291 kts 321°
2026-05-06 01:21 17.58179 -62.92469 11843 ft 289 kts 321°
2026-05-06 01:22 17.59751 -62.93798 11478 ft 292 kts 321°
2026-05-06 01:22 17.61332 -62.95134 11102 ft 293 kts 321°
2026-05-06 01:22 17.62928 -62.96481 10723 ft 295 kts 322°
2026-05-06 01:22 17.64527 -62.97831 10343 ft 296 kts 322°
2026-05-06 01:23 17.66158 -62.99212 9949 ft 298 kts 322°
2026-05-06 01:23 17.67774 -63.00579 9536 ft 299 kts 323°
2026-05-06 01:23 17.69393 -63.01948 9148 ft 299 kts 322°
2026-05-06 01:23 17.71021 -63.03327 8756 ft 299 kts 322°
2026-05-06 01:24 17.72635 -63.04692 8369 ft 300 kts 322°
2026-05-06 01:24 17.74260 -63.06066 7983 ft 300 kts 323°
2026-05-06 01:24 17.75892 -63.07443 7596 ft 301 kts 323°
2026-05-06 01:24 17.77511 -63.08811 7236 ft 295 kts 323°
2026-05-06 01:25 17.79087 -63.10148 6825 ft 287 kts 322°
2026-05-06 01:25 17.80610 -63.11440 6452 ft 278 kts 322°
2026-05-06 01:25 17.82115 -63.12715 6076 ft 270 kts 323°
2026-05-06 01:25 17.83560 -63.13938 5725 ft 266 kts 323°
2026-05-06 01:26 17.85019 -63.15170 5379 ft 271 kts 322°
2026-05-06 01:26 17.86503 -63.16424 4925 ft 276 kts 322°
2026-05-06 01:26 17.88000 -63.17692 4552 ft 277 kts 322°
2026-05-06 01:26 17.89501 -63.18966 4188 ft 278 kts 322°
2026-05-06 01:27 17.91005 -63.20245 3825 ft 278 kts 321°
2026-05-06 01:27 17.92513 -63.21529 3459 ft 280 kts 322°
2026-05-06 01:27 17.94028 -63.22817 3085 ft 280 kts 322°
2026-05-06 01:27 17.95544 -63.24104 2750 ft 280 kts 323°
2026-05-06 01:28 17.97119 -63.25301 2440 ft 277 kts 336°
2026-05-06 01:28 17.98899 -63.25714 2282 ft 246 kts
2026-05-06 01:28 18.00407 -63.25312 2177 ft 209 kts 32°
2026-05-06 01:28 18.01504 -63.24427 2105 ft 188 kts 52°
2026-05-06 01:29 18.02141 -63.23367 2029 ft 159 kts 70°
2026-05-06 01:29 18.02403 -63.22341 1967 ft 135 kts 85°
2026-05-06 01:29 18.02535 -63.21361 1586 ft 138 kts 84°
2026-05-06 01:29 18.02671 -63.20334 1126 ft 147 kts 85°
2026-05-06 01:30 18.02813 -63.19273 1046 ft 148 kts 85°
2026-05-06 01:30 18.02958 -63.18189 1061 ft 150 kts 83°
2026-05-06 01:30 18.03104 -63.17097 1048 ft 151 kts 83°
2026-05-06 01:30 18.03288 -63.15961 1009 ft 161 kts 80°
2026-05-06 01:31 18.03549 -63.14864 751 ft 146 kts 82°
2026-05-06 01:31 18.03696 -63.13811 399 ft 144 kts 83°
2026-05-06 01:31 18.03813 -63.12787 241 ft 135 kts 83°
2026-05-06 01:31 18.03923 -63.12083 93 ft 131 kts 81°
2026-05-06 01:32 18.04047 -63.11216 28 ft 99 kts 82°
2026-05-06 01:32 18.04103 -63.10812 27 ft 14 kts 81°
2026-05-06 01:32 18.04104 -63.10724 27 ft 10 kts 104°
2026-05-06 01:32 18.04123 -63.10714 27 ft 3 kts 292°
2026-05-06 01:33 18.04112 -63.10797 27 ft 15 kts 262°
2026-05-06 01:33 18.04094 -63.10913 27 ft 17 kts 260°
2026-05-06 01:33 18.04072 -63.11046 28 ft 20 kts 261°
2026-05-06 01:33 18.04076 -63.11141 28 ft 10 kts 318°
2026-05-06 01:34 18.04138 -63.11170 28 ft 9 kts 329°
2026-05-06 01:34 18.04140 -63.11239 28 ft 9 kts 265°
2026-05-06 01:34 18.04154 -63.11301 28 ft 10 kts 327°
2026-05-06 01:34 18.04189 -63.11307 29 ft 1 kts 353°
2026-05-06 01:35 18.04196 -63.11308 29 ft 1 kts 353°
2026-05-06 01:35 18.04210 -63.11310 29 ft 3 kts 353°
2026-05-06 01:35 18.04228 -63.11312 29 ft 3 kts 354°
2026-05-06 01:35 18.04254 -63.11300 29 ft 5 kts 39°
2026-05-06 01:36 18.04279 -63.11257 29 ft 7 kts 61°
2026-05-06 01:36 18.04313 -63.11223 29 ft 7 kts
2026-05-06 01:36 18.04333 -63.11225 29 ft 3 kts 354°
2026-05-06 01:36 18.04350 -63.11228 29 ft 0 kts 352°